timestamp,wind_dir_avg,wind_spd_avg,wind_spd_max_dir,wind_spd_gust,battery_voltage,lat,long
2024-02-18 00:04:00+00:00,249.0,14.63,245.0,16.88,12.17,47.59359,-54.27349
2024-02-18 00:14:00+00:00,250.0,13.63,251.0,16.47,12.17,47.59359,-54.27349
2024-02-18 00:24:00+00:00,254.0,11.54,255.0,13.8,12.17,47.59359,-54.27349
2024-02-18 00:34:00+00:00,253.0,9.8,244.0,10.86,12.17,47.59359,-54.27349
2024-02-18 00:44:00+00:00,251.0,11.08,255.0,13.38,12.17,47.59359,-54.27349
2024-02-18 00:54:00+00:00,248.0,10.14,245.0,11.35,12.17,47.59359,-54.27349
2024-02-18 01:04:00+00:00,250.0,11.18,243.0,14.03,12.17,47.59359,-54.27349
2024-02-18 01:14:00+00:00,245.0,13.08,249.0,15.83,12.09,47.59359,-54.27349
2024-02-18 01:24:00+00:00,237.0,10.63,235.0,13.34,12.09,47.59359,-54.27349
2024-02-18 01:34:00+00:00,244.0,11.14,250.0,13.5,12.09,47.59359,-54.27349
2024-02-18 01:44:00+00:00,250.0,10.24,249.0,11.28,12.09,47.59359,-54.27349
2024-02-18 01:54:00+00:00,250.0,10.67,248.0,12.35,12.09,47.59359,-54.27349
2024-02-18 02:04:00+00:00,249.0,9.26,248.0,10.26,12.09,47.59359,-54.27349
2024-02-18 02:14:00+00:00,242.0,11.29,241.0,14.66,12.09,47.59359,-54.27349
2024-02-18 02:24:00+00:00,247.0,9.2,249.0,10.26,12.09,47.59359,-54.27349
2024-02-18 02:34:00+00:00,236.0,9.36,238.0,11.99,12.09,47.59359,-54.27349
2024-02-18 02:44:00+00:00,248.0,9.29,258.0,10.69,12.09,47.59359,-54.27349
2024-02-18 02:54:00+00:00,255.0,8.69,255.0,10.26,12.09,47.59359,-54.27349
2024-02-18 03:04:00+00:00,253.0,6.47,252.0,7.52,12.09,47.59359,-54.27349
2024-02-18 03:14:00+00:00,244.0,5.81,238.0,6.55,12.09,47.59359,-54.27349
2024-02-18 03:24:00+00:00,244.0,7.42,253.0,8.39,12.09,47.59359,-54.27349
2024-02-18 03:34:00+00:00,234.0,8.75,231.0,9.79,12.09,47.59359,-54.27349
2024-02-18 03:44:00+00:00,227.0,7.11,236.0,8.1,12.09,47.59359,-54.27349
2024-02-18 03:54:00+00:00,221.0,8.02,214.0,9.6,12.09,47.59359,-54.27349
2024-02-18 04:04:00+00:00,228.0,6.74,222.0,7.75,12.09,47.59359,-54.27349
2024-02-18 04:14:01+00:00,220.0,6.76,225.0,6.96,12.09,47.59359,-54.27349
2024-02-18 04:24:01+00:00,234.0,6.09,231.0,6.66,12.09,47.59359,-54.27349
2024-02-18 04:34:01+00:00,228.0,5.7,239.0,6.95,12.09,47.59359,-54.27349
2024-02-18 04:44:01+00:00,315.0,0.01,225.0,0.0,12.09,47.59359,-54.27349
2024-02-18 04:54:01+00:00,220.0,6.38,222.0,6.52,12.09,47.59359,-54.27349
2024-02-18 05:04:01+00:00,315.0,0.01,223.0,0.0,12.09,47.59359,-54.27349
2024-02-18 05:14:00+00:00,200.0,6.34,200.0,7.12,12.01,47.59359,-54.27349
2024-02-18 05:24:00+00:00,206.0,5.15,204.0,5.59,12.01,47.59359,-54.27349
2024-02-18 05:34:00+00:00,187.0,5.5,185.0,6.22,12.01,47.59359,-54.27349
2024-02-18 05:44:00+00:00,174.0,5.85,175.0,6.35,12.01,47.59359,-54.27349
2024-02-18 05:54:00+00:00,177.0,5.63,180.0,6.44,12.01,47.59359,-54.27349
2024-02-18 06:04:00+00:00,168.0,5.31,172.0,5.76,12.01,47.59359,-54.27349
2024-02-18 06:14:01+00:00,176.0,5.85,177.0,6.59,12.01,47.59359,-54.27349
2024-02-18 06:24:01+00:00,179.0,6.04,178.0,7.05,12.01,47.59359,-54.27349
2024-02-18 06:34:01+00:00,176.0,5.07,177.0,6.42,12.01,47.59359,-54.27349
2024-02-18 06:44:01+00:00,166.0,5.69,165.0,6.37,12.01,47.59359,-54.27349
2024-02-18 06:54:01+00:00,165.0,5.58,169.0,6.0,12.01,47.59359,-54.27349
2024-02-18 07:04:01+00:00,156.0,4.54,136.0,5.62,12.01,47.59359,-54.27349
2024-02-18 07:14:00+00:00,141.0,4.78,132.0,5.8,12.01,47.59359,-54.27349
2024-02-18 07:24:00+00:00,136.0,5.27,130.0,6.32,12.01,47.59359,-54.27349
2024-02-18 07:34:00+00:00,111.0,4.19,107.0,5.34,12.01,47.59359,-54.27349
2024-02-18 07:44:00+00:00,106.0,4.55,106.0,6.15,12.01,47.59359,-54.27349
2024-02-18 07:54:00+00:00,126.0,3.81,142.0,5.0,12.01,47.59359,-54.27349
2024-02-18 08:04:00+00:00,117.0,3.82,110.0,5.89,12.01,47.59359,-54.27349
2024-02-18 08:14:01+00:00,115.0,4.65,107.0,5.96,12.01,47.59359,-54.27349
2024-02-18 08:24:01+00:00,127.0,3.3,112.0,5.18,12.01,47.59359,-54.27349
2024-02-18 08:34:01+00:00,113.0,4.52,108.0,6.39,12.01,47.59359,-54.27349
2024-02-18 08:44:01+00:00,114.0,4.38,109.0,5.89,12.01,47.59359,-54.27349
2024-02-18 08:54:01+00:00,125.0,3.69,140.0,5.75,12.01,47.59359,-54.27349
2024-02-18 09:04:01+00:00,108.0,3.84,106.0,5.89,12.01,47.59359,-54.27349
2024-02-18 09:14:00+00:00,87.0,4.45,90.0,5.9,11.93,47.59359,-54.27349
2024-02-18 09:24:00+00:00,94.0,4.35,102.0,6.05,11.93,47.59359,-54.27349
2024-02-18 09:34:00+00:00,80.0,3.21,102.0,5.29,11.93,47.59359,-54.27349
2024-02-18 09:44:00+00:00,70.0,3.38,70.0,5.08,11.93,47.59359,-54.27349
2024-02-18 09:54:00+00:00,68.0,3.45,75.0,5.44,11.93,47.59359,-54.27349
2024-02-18 10:04:00+00:00,52.0,4.1,58.0,4.66,11.93,47.59359,-54.27349
2024-02-18 10:14:00+00:00,48.0,4.47,51.0,4.68,11.93,47.59359,-54.27349
2024-02-18 10:24:00+00:00,48.0,5.01,46.0,5.51,11.93,47.59359,-54.27349
2024-02-18 10:34:00+00:00,41.0,6.14,41.0,6.57,11.93,47.59359,-54.27349
2024-02-18 10:44:00+00:00,40.0,6.19,39.0,7.01,11.93,47.59359,-54.27349
2024-02-18 10:54:00+00:00,37.0,7.01,37.0,7.57,11.93,47.59359,-54.27349
2024-02-18 11:04:00+00:00,35.0,7.57,36.0,8.46,11.93,47.59359,-54.27349
2024-02-18 11:14:00+00:00,30.0,8.06,31.0,8.77,11.93,47.59359,-54.27349
2024-02-18 11:24:00+00:00,23.0,8.1,31.0,8.86,11.93,47.59359,-54.27349
2024-02-18 11:34:00+00:00,22.0,8.74,28.0,9.06,11.93,47.59359,-54.27349
2024-02-18 11:44:00+00:00,28.0,7.97,31.0,9.28,11.93,47.59359,-54.27349
2024-02-18 11:54:00+00:00,33.0,10.05,33.0,11.23,11.93,47.59359,-54.27349
2024-02-18 12:04:00+00:00,24.0,9.62,26.0,10.91,11.93,47.59359,-54.27349
2024-02-18 12:14:01+00:00,7.0,9.1,26.0,10.42,11.93,47.59359,-54.27349
2024-02-18 12:24:01+00:00,6.0,8.72,22.0,10.3,11.93,47.59359,-54.27349
2024-02-18 12:34:01+00:00,356.0,8.44,357.0,9.95,11.93,47.59359,-54.27349
2024-02-18 12:44:01+00:00,333.0,8.4,326.0,10.3,11.93,47.59359,-54.27349
2024-02-18 12:54:01+00:00,330.0,9.54,325.0,10.45,11.93,47.59359,-54.27349
2024-02-18 13:04:01+00:00,328.0,10.3,329.0,11.18,11.93,47.59359,-54.27349
2024-02-18 13:14:00+00:00,332.0,7.93,336.0,10.0,12.41,47.59359,-54.27349
2024-02-18 13:24:00+00:00,341.0,8.89,338.0,10.4,12.41,47.59359,-54.27349
2024-02-18 13:34:00+00:00,338.0,7.67,313.0,9.87,12.41,47.59359,-54.27349
2024-02-18 13:44:00+00:00,340.0,8.15,330.0,9.67,12.41,47.59359,-54.27349
2024-02-18 13:54:00+00:00,319.0,8.82,294.0,13.49,12.41,47.59359,-54.27349
2024-02-18 14:04:00+00:00,319.0,8.86,306.0,14.37,12.41,47.59359,-54.27349
2024-02-18 14:14:00+00:00,325.0,7.31,311.0,10.21,12.73,47.59359,-54.27349
2024-02-18 14:24:00+00:00,326.0,8.59,320.0,11.62,12.73,47.59359,-54.27349
2024-02-18 14:34:00+00:00,307.0,10.03,295.0,13.04,12.73,47.59359,-54.27349
2024-02-18 14:44:00+00:00,304.0,11.14,304.0,14.86,12.73,47.59359,-54.27349
2024-02-18 14:54:00+00:00,299.0,12.44,304.0,15.79,12.73,47.59359,-54.27349
2024-02-18 15:04:00+00:00,300.0,14.01,299.0,15.88,12.73,47.59359,-54.27349
2024-02-18 15:14:01+00:00,296.0,13.21,298.0,15.31,13.37,47.59359,-54.27349
2024-02-18 15:24:01+00:00,303.0,11.47,297.0,15.69,13.37,47.59359,-54.27349
2024-02-18 15:34:01+00:00,303.0,10.61,299.0,14.48,13.37,47.59359,-54.27349
2024-02-18 15:44:01+00:00,292.0,12.42,296.0,15.58,13.37,47.59359,-54.27349
2024-02-18 15:54:01+00:00,293.0,13.47,297.0,15.84,13.37,47.59359,-54.27349
2024-02-18 16:04:01+00:00,283.0,13.24,286.0,14.95,13.37,47.59359,-54.27349
2024-02-18 16:14:00+00:00,276.0,13.43,282.0,15.01,13.68,47.59359,-54.27349
2024-02-18 16:24:00+00:00,271.0,12.87,273.0,14.43,13.68,47.59359,-54.27349
2024-02-18 16:34:00+00:00,271.0,11.48,274.0,14.9,13.68,47.59359,-54.27349
2024-02-18 16:44:00+00:00,283.0,12.02,279.0,14.82,13.68,47.59359,-54.27349
2024-02-18 16:54:00+00:00,280.0,12.48,279.0,14.7,13.68,47.59359,-54.27349
2024-02-18 17:04:00+00:00,277.0,11.6,279.0,14.2,13.68,47.59359,-54.27349
2024-02-18 17:14:00+00:00,271.0,12.04,277.0,17.04,14.24,47.59359,-54.27349
2024-02-18 17:24:00+00:00,278.0,13.09,280.0,15.74,14.24,47.59359,-54.27349
2024-02-18 17:34:00+00:00,276.0,17.0,274.0,21.53,14.24,47.59359,-54.27349
2024-02-18 17:44:00+00:00,284.0,14.01,287.0,15.43,14.24,47.59359,-54.27349
2024-02-18 17:54:00+00:00,283.0,14.89,285.0,21.13,14.24,47.59359,-54.27349
2024-02-18 18:04:00+00:00,278.0,14.1,279.0,20.61,14.24,47.59359,-54.27349
2024-02-18 18:14:00+00:00,277.0,12.25,280.0,14.37,13.68,47.59359,-54.27349
2024-02-18 18:24:00+00:00,280.0,12.41,281.0,14.57,13.68,47.59359,-54.27349
2024-02-18 18:34:00+00:00,273.0,12.14,277.0,14.2,13.68,47.59359,-54.27349
2024-02-18 18:44:00+00:00,282.0,12.78,281.0,14.85,13.68,47.59359,-54.27349
2024-02-18 18:54:00+00:00,271.0,12.98,267.0,20.06,13.68,47.59359,-54.27349
2024-02-18 19:04:00+00:00,286.0,14.44,281.0,18.24,13.68,47.59359,-54.27349
2024-02-18 19:14:00+00:00,272.0,14.3,273.0,21.0,13.44,47.59359,-54.27349
2024-02-18 19:24:00+00:00,262.0,12.12,265.0,15.78,13.44,47.59359,-54.27349
2024-02-18 19:34:00+00:00,264.0,13.24,273.0,20.26,13.44,47.59359,-54.27349
2024-02-18 19:44:00+00:00,275.0,13.46,283.0,20.47,13.44,47.59359,-54.27349
2024-02-18 19:54:00+00:00,263.0,12.7,261.0,14.13,13.44,47.59359,-54.27349
2024-02-18 20:04:00+00:00,258.0,12.49,260.0,14.81,13.44,47.59359,-54.27349
2024-02-18 20:14:00+00:00,248.0,13.19,243.0,15.33,13.37,47.59359,-54.27349
2024-02-18 20:24:00+00:00,255.0,11.13,264.0,13.13,13.37,47.59359,-54.27349
2024-02-18 20:34:00+00:00,251.0,13.96,256.0,21.04,13.37,47.59359,-54.27349
2024-02-18 20:44:00+00:00,250.0,12.58,254.0,14.79,13.37,47.59359,-54.27349
2024-02-18 20:54:00+00:00,251.0,12.71,249.0,15.29,13.37,47.59359,-54.27349
2024-02-18 21:04:00+00:00,250.0,12.48,252.0,14.67,13.37,47.59359,-54.27349
2024-02-18 21:14:00+00:00,252.0,11.98,256.0,15.56,12.73,47.59359,-54.27349
2024-02-18 21:24:00+00:00,259.0,11.55,262.0,14.98,12.73,47.59359,-54.27349
2024-02-18 21:34:00+00:00,254.0,12.19,252.0,13.28,12.73,47.59359,-54.27349
2024-02-18 21:44:00+00:00,256.0,11.75,260.0,15.55,12.73,47.59359,-54.27349
2024-02-18 21:54:00+00:00,257.0,11.71,261.0,13.63,12.73,47.59359,-54.27349
2024-02-18 22:04:00+00:00,268.0,11.6,266.0,13.78,12.73,47.59359,-54.27349
2024-02-18 22:14:00+00:00,265.0,12.44,271.0,14.2,12.33,47.59359,-54.27349
2024-02-18 22:24:00+00:00,263.0,11.92,264.0,14.12,12.33,47.59359,-54.27349
2024-02-18 22:34:00+00:00,280.0,11.94,283.0,16.17,12.33,47.59359,-54.27349
2024-02-18 22:44:00+00:00,263.0,11.66,263.0,14.53,12.33,47.59359,-54.27349
2024-02-18 22:54:00+00:00,264.0,12.6,263.0,14.36,12.33,47.59359,-54.27349
2024-02-18 23:04:00+00:00,269.0,12.92,270.0,14.43,12.33,47.59359,-54.27349
2024-02-18 23:14:00+00:00,272.0,11.27,273.0,14.76,12.25,47.59359,-54.27349
2024-02-18 23:24:00+00:00,276.0,12.15,275.0,15.64,12.25,47.59359,-54.27349
2024-02-18 23:34:00+00:00,267.0,13.06,272.0,20.45,12.25,47.59359,-54.27349
2024-02-18 23:44:00+00:00,270.0,15.12,283.0,21.04,12.25,47.59359,-54.27349
2024-02-18 23:54:00+00:00,255.0,11.28,255.0,15.11,12.25,47.59359,-54.27349
